Location: Atbuku
(36.4936°N, 30.4362°E)
Time: 17:29:51
(UTC+00:00)

IRIDIUM 103 - Pass Details

Date: 11 December 2025
Orbit: 776 x 779 km, 86.4° (Epoch: 15 January)

Event Time Altitude Azimuth Distance (km) Brightness Sun altitude
Rises 15:17:46 0° 359° (N) 3,267 7.3 -7.1°
Reaches altitude 10° 15:20:07 10° 1° (N) 2,335 6.6 -7.5°
Maximum altitude 15:25:21 77° 87° (E) 800 4.3 -8.5°
Drops below altitude 10° 15:30:33 10° 174° (S) 2,317 7.0 -9.5°
Sets 15:32:53 0° 176° (S) 3,240 7.8 -9.9°
